Home   Weather   Winnipeg   Past weeks
Flag for Canada

Past Weather in Winnipeg, Manitoba, Canada — Yesterday and Last 2 Weeks

Now
49 °F

Cool.


Feels Like: 46 °F
Forecast: N/A
Wind: 8 mph from Northeast

Location: Winnipeg The Forks Man

Current Time: May 22, 2019 at 3:57:37 pm

Latest Report: May 22, 2019 at 3:00 pm


Visibility: N/A

Pressure: 29.80 "Hg

Humidity: 87%

Dew Point: 45 °F

Location of WinnipegLocation

Past Weather in Winnipeg — Graph

°F

Winnipeg Temperature Yesterday

Maximum temperature yesterday: 74 °F (at 4:00 pm)
Minimum temperature yesterday: 45 °F (at 5:00 am)
Average temperature yesterday: 61 °F

High & Low Weather Summary for the Past Weeks

 TemperatureHumidityPressure
High77 °F (May 13, 6:00 pm)93% (May 12, 7:00 am)30.28 "Hg (May 12, 7:00 am)
Low33 °F (May 9, 6:00 am)15% (May 10, 3:00 pm)29.56 "Hg (May 15, 9:00 pm)
Average52 °F47%29.99 "Hg
* Reported May 7 3:00 pm — May 22 3:00 pm, Winnipeg. Weather by CustomWeather, © 2019

Note: Actual official high and low records may vary slightly from our data, if they occured in-between our weather recording intervals... More about our weather records

Advertising

Winnipeg Weather History for the Previous 24 Hours

Scroll right to see more
 ConditionsComfort  
Time TempWeatherWind HumidityBarometerVisibility
3:00 pm
Wed, May 22
49 °FCool.8 mph87%29.80 "HgN/A
2:00 pm53 °FCool.12 mph64%29.80 "HgN/A
1:00 pm53 °FCool.9 mph68%29.80 "HgN/A
12:00 pm51 °FCool.10 mph70%29.82 "HgN/A
11:00 am56 °FRefreshingly cool.9 mph47%29.81 "HgN/A
10:00 am57 °FRefreshingly cool.7 mph41%29.81 "HgN/A
9:00 am56 °FRefreshingly cool.5 mph44%29.83 "HgN/A
8:00 am56 °FRefreshingly cool.5 mph44%29.84 "HgN/A
7:00 am56 °FRefreshingly cool.5 mph39%29.84 "HgN/A
6:00 am56 °FRefreshingly cool.3 mph42%29.85 "HgN/A
5:00 am56 °FRefreshingly cool.5 mph43%29.86 "HgN/A
4:00 am58 °FRefreshingly cool.5 mph39%29.87 "HgN/A
3:00 am59 °FRefreshingly cool.5 mph38%29.88 "HgN/A
2:00 am60 °FRefreshingly cool.5 mph35%29.88 "HgN/A
1:00 am59 °FRefreshingly cool.3 mph38%29.91 "HgN/A
12:00 am60 °FRefreshingly cool.3 mph37%29.93 "HgN/A
11:00 pm
Tue, May 21
61 °FRefreshingly cool.3 mph33%29.96 "HgN/A
10:00 pm64 °FMild.3 mph32%29.96 "HgN/A
9:00 pm66 °FMild.3 mph27%29.94 "HgN/A
8:00 pm71 °FMild.7 mph21%29.96 "HgN/A
7:00 pm72 °FMild.7 mph20%29.96 "HgN/A
6:00 pm73 °FMild.7 mph18%29.98 "HgN/A
5:00 pm72 °FMild.7 mph20%30.01 "HgN/A
4:00 pm74 °FMild.5 mph21%30.02 "HgN/A
3:00 pm72 °FMild.6 mph20%30.06 "HgN/A
Weather by CustomWeather, © 2019

See weather overview